Location: Losili
(4.4086°N, 32.7049°E)
Time: 03:04:23
(UTC+00:00)

Cosmos 2322 Rocket - Pass Details

Date: 18 September 2019
Orbit: 834 x 849 km, 71.0° (Epoch: 18 October)

Event Time Altitude Azimuth Distance (km) Brightness Sun altitude
Rises 16:45:23 0° 338° (NNW) 3,368 5.7 -15.3°
Reaches altitude 10° 16:47:50 10° 335° (NNW) 2,437 5.0 -15.9°
Maximum altitude 16:53:21 62° 255° (WSW) 936 2.7 -17.3°
Drops below altitude 10° 16:58:53 10° 175° (S) 2,451 4.5 -18.7°
Sets 17:01:22 0° 172° (S) 3,389 5.2 -19.3°
